[[{"header":{"parameterUnit":"m.s-1","parameterCategory":1,"la1":30.2991,"la2":30.254,"lo1":-89.0895,"lo2":-89.0444,"dy":0.0017,"dx":0.0017,"nx":28,"ny":28,"refTime":"2023-10-26T03:00:00:Z","depth":0,"parameterNumber":2,"parameterNumberName":"U-component_of_WINDS"},"data":[0,0,0,0,0,0,0,0,0,0,0,0,0,0,0,0,0,0,0,0,0,0,0,0,0,0,0,0,0,0,0,0,0,0,0,0,0,0,0,0,0,0,0,0,0,0,0,0,0,0,0,0,0,0,0,0,0,0,-3.3198,-3.3199,0,-3.3267,-3.3268,-3.3269,-3.3252,-3.3251,-3.3249,-3.3248,-3.3325,-3.3329,-3.3332,0,0,0,0,0,0,0,0,0,0,0,0,0,-3.306,-3.3063,-3.3198,-3.3199,-3.32,-3.3267,-3.3268,-3.3269,-3.3252,-3.3251,-3.3249,-3.3248,-3.3324,-3.3328,-3.3332,0,0,0,0,0,0,0,0,0,0,0,0,0,-3.3124,-3.3064,-3.3198,-3.3199,-3.32,-3.3267,-3.3268,-3.3269,-3.3253,-3.3251,-3.3249,-3.3247,-3.3323,-3.3328,-3.3333,-3.3404,0,0,-3.3348,-3.335,0,0,0,0,0,0,0,0,-3.312,-3.3129,-3.3198,-3.3199,-3.32,-3.3249,-3.3248,-3.3315,-3.3253,-3.3233,-3.3248,-3.3246,-3.3302,-3.3309,-3.3326,-3.3408,-3.3411,-3.3348,-3.3351,-3.3353,-3.3355,0,0,0,0,0,0,0,-3.3116,-3.3126,-3.3226,-3.3199,-3.3201,-3.32,-3.3206,-3.326,-3.3278,-3.3235,-3.3233,-3.3242,-3.3302,-3.3321,-3.3328,-3.3412,-3.3348,-3.3353,-3.3356,-3.3358,-3.3561,-3.3563,0,0,0,0,0,0,-3.311,-3.3122,-3.3223,-3.3228,-3.3154,-3.3204,-3.3211,-3.3235,-3.3277,-3.3282,-3.3243,-3.3241,-3.3314,-3.3322,-3.3331,-3.342,-3.3353,-3.3358,-3.3361,-3.3559,-3.3561,-3.3564,0,0,0,0,0,0,-3.3107,-3.3119,-3.3221,-3.3175,-3.3188,-3.3208,-3.3236,-3.3238,-3.3257,-3.3284,-3.3288,-3.3259,-3.3313,-3.3324,-3.3387,-3.3422,-3.336,-3.3365,-3.3556,-3.3559,-3.3563,-3.3597,0,0,0,0,0,0,-3.3103,-3.3118,-3.3143,-3.3175,-3.319,-3.3273,-3.3238,-3.3241,-3.3265,-3.3262,-3.33,-3.3304,-3.3312,-3.3379,-3.3391,-3.3428,-3.3369,-3.3553,-3.3557,-3.3562,-3.3592,-3.3601,-3.3608,0,0,0,0,0,-3.3098,-3.315,-3.3144,-3.3156,-3.3221,-3.3274,-3.3283,-3.3289,-3.3268,-3.3295,-3.3313,-3.3303,-3.3416,-3.3386,-3.3399,-3.3438,-3.355,-3.3556,-3.3561,-3.3589,-3.3599,-3.3608,0,0,0,0,0,0,-3.3121,-3.3154,-3.3148,-3.3211,-3.324,-3.3271,-3.3305,-3.3299,-3.3336,-3.3332,-3.334,-3.3349,-3.3414,-3.3432,-3.3398,-3.3512,-3.3481,-3.3489,-3.3497,-3.3507,-3.3515,-3.3509,-3.3373,0,0,0,0,0,-3.3134,-3.3172,-3.3199,-3.3253,-3.3268,-3.3284,-3.3308,-3.331,-3.3341,-3.3354,-3.3376,-3.3409,-3.3453,-3.3481,-3.3522,-3.3595,-3.3606,-3.3629,-3.3637,-3.3643,-3.3651,-3.3695,-3.3707,-3.3582,-3.3582,-3.3582,0,0,-3.316,-3.3183,-3.3206,-3.3258,-3.3281,-3.3324,-3.3294,-3.334,-3.3372,-3.3361,-3.3422,-3.3441,-3.3478,-3.3548,-3.3579,-3.3565,-3.3688,-3.365,-3.3655,-3.3659,-3.3702,-3.3714,-3.3724,-3.3586,-3.3585,-3.3584,0,0,-3.323,-3.3249,-3.3298,-3.3322,-3.3356,-3.3368,-3.338,-3.3413,-3.3424,-3.3485,-3.3479,-3.352,-3.3593,-3.3621,-3.3645,-3.373,-3.3724,-3.3744,-3.3785,-3.3829,-3.3838,-3.3847,-3.3881,-3.3892,-3.3751,-3.3751,-3.3751,0,-3.3258,-3.3319,-3.3324,-3.3371,-3.3395,-3.3387,-3.3438,-3.3462,-3.3509,-3.3528,-3.351,-3.3605,-3.3629,-3.3707,-3.3729,-3.3747,-3.3764,-3.3739,-3.3836,-3.3845,-3.3854,-3.3886,-3.3898,-3.3754,-3.3753,-3.3753,-3.3753,0,-3.3355,-3.3398,-3.3434,-3.3479,-3.3508,-3.3556,-3.3571,-3.3601,-3.3602,-3.3616,-3.3682,-3.3711,-3.376,-3.3778,-3.378,-3.3858,-3.3848,-3.3834,-3.3803,-3.3868,-3.3898,-3.391,-3.3757,-3.3756,-3.3755,-3.3755,0,0,-3.3439,-3.3488,-3.3501,-3.3523,-3.3563,-3.3598,-3.3649,-3.3695,-3.3722,-3.3756,-3.3801,-3.3865,-3.3853,-3.388,-3.3886,-3.3923,-3.3994,-3.3905,-3.3906,-3.3922,-3.4086,-3.4098,-3.4111,-3.399,-3.3992,-3.3994,-3.4084,0,-3.3514,-3.36,-3.3608,-3.3687,-3.3729,-3.3724,-3.3769,-3.38,-3.3816,-3.3857,-3.3876,-3.3922,-3.3901,-3.3918,-3.3955,-3.3977,-3.4027,-3.3971,-3.4035,-3.4037,-3.4026,-3.4127,-3.4138,-3.4221,-3.4095,-3.4097,-3.4099,0,-3.3612,-3.3649,-3.3732,-3.3769,-3.3787,-3.3827,-3.3872,-3.391,-3.3948,-3.3957,-3.3989,-3.3991,-3.4047,-3.4015,-3.4095,-3.4056,-3.4084,-3.4099,-3.4103,-3.411,-3.4072,-3.4138,-3.4247,-3.4261,-3.4117,-3.4115,-3.4114,0,-3.3668,-3.3738,-3.3798,-3.3817,-3.3861,-3.389,-3.3911,-3.3946,-3.3975,-3.4015,-3.4035,-3.4083,-3.4109,-3.4148,-3.4163,-3.4137,-3.4244,-3.4212,-3.4257,-3.4257,-3.4279,-3.4278,-3.4396,-3.4295,-3.4295,-3.4294,-3.4294,0,-3.3751,-3.3803,-3.3824,-3.3861,-3.3921,-3.3931,-3.3991,-3.401,-3.4042,-3.4086,-3.4085,-3.4126,-3.4144,-3.4189,-3.4202,-3.4269,-3.4281,-3.4293,-3.4296,-3.4293,-3.4292,-3.4312,-3.4307,-3.4298,-3.4297,-3.4296,-3.4296,0,-3.3823,-3.3839,-3.3905,-3.3942,-3.3953,-3.3996,-3.4029,-3.4067,-3.4084,-3.4139,-3.4153,-3.418,-3.4234,-3.4254,-3.4319,-3.4329,-3.4407,-3.4404,-3.4393,-3.4395,-3.4439,-3.4435,-3.4575,-3.4596,-3.4479,-3.448,-3.4481,0,-3.3876,-3.3916,-3.3958,-3.3986,-3.4008,-3.4053,-3.4083,-3.4096,-3.4128,-3.4175,-3.4209,-3.4262,-3.4305,-3.4393,-3.442,-3.4472,-3.4472,-3.4518,-3.448,-3.4477,-3.4476,-3.4473,-3.4479,-3.4525,-3.4526,-3.4527,-3.4528,0,-3.3968,-3.3975,-3.4016,-3.4063,-3.4098,-3.4135,-3.4171,-3.4195,-3.4215,-3.4251,-3.4305,-3.4339,-3.4407,-3.4462,-3.4515,-3.454,-3.4539,-3.4539,-3.4553,-3.4551,-3.4544,-3.4551,-3.4414,-3.4536,-3.4535,-3.4535,-3.4534,-3.4534,-3.4034,-3.407,-3.4107,-3.4154,-3.4183,-3.4218,-3.4256,-3.4278,-3.4323,-3.4378,-3.4384,-3.4444,-3.4486,-3.4557,-3.4585,-3.4634,-3.4622,-3.4641,-3.4646,-3.4651,-3.4656,-3.4536,-3.4644,-3.4644,-3.4644,-3.4643,-3.4643,0,-3.4128,-3.4152,-3.4196,-3.4246,-3.4285,-3.4279,-3.432,-3.4354,-3.4406,-3.4443,-3.4486,-3.4552,-3.4606,-3.4638,-3.4694,-3.4727,-3.4729,-3.4742,-3.474,-3.4747,-3.4662,-3.4645,-3.474,-3.474,-3.474,-3.474,-3.474,-3.474,-3.4182,-3.4244,-3.4256,-3.4335,-3.4359,-3.4416,-3.4441,-3.4475,-3.4505,-3.4577,-3.4621,-3.4642,-3.468,-3.4738,-3.4789,-3.4798,-3.4819,-3.4834,-3.4842,-3.4762,-3.4752,-3.4743,-3.4727,-3.4838,-3.4838,-3.4923,-3.4924,-3.4924]},{"header":{"parameterUnit":"m.s-1","parameterCategory":1,"la1":30.2991,"la2":30.254,"lo1":-89.0895,"lo2":-89.0444,"dy":0.0017,"dx":0.0017,"nx":28,"ny":28,"refTime":"2023-10-26T03:00:00:Z","depth":0,"parameterNumber":3,"parameterNumberName":"V-component_of_WINDS"},"data":[0,0,0,0,0,0,0,0,0,0,0,0,0,0,0,0,0,0,0,0,0,0,0,0,0,0,0,0,0,0,0,0,0,0,0,0,0,0,0,0,0,0,0,0,0,0,0,0,0,0,0,0,0,0,0,0,0,0,0.2621,0.2622,0,0.2706,0.2707,0.2708,0.2813,0.2815,0.2816,0.2818,0.2906,0.2906,0.2907,0,0,0,0,0,0,0,0,0,0,0,0,0,0.255,0.2551,0.2621,0.2622,0.2623,0.2706,0.2707,0.2709,0.2813,0.2815,0.2817,0.2818,0.2905,0.2906,0.2907,0,0,0,0,0,0,0,0,0,0,0,0,0,0.2603,0.2551,0.2621,0.2685,0.2692,0.2706,0.2707,0.2709,0.2812,0.2815,0.2817,0.2819,0.2905,0.2906,0.2907,0.2866,0,0,0.2911,0.2912,0,0,0,0,0,0,0,0,0.26,0.2605,0.2675,0.2681,0.2688,0.2752,0.2715,0.2761,0.2812,0.2766,0.2818,0.2821,0.2852,0.2858,0.2869,0.287,0.2873,0.2911,0.2912,0.2913,0.2913,0,0,0,0,0,0,0,0.2596,0.2602,0.2655,0.2676,0.2684,0.271,0.272,0.2724,0.2795,0.2771,0.2778,0.2787,0.2857,0.2867,0.2872,0.2875,0.2911,0.2912,0.2913,0.2914,0.2848,0.2845,0,0,0,0,0,0,0.2582,0.2598,0.2652,0.2658,0.2649,0.2709,0.2721,0.2729,0.2795,0.2807,0.2785,0.2792,0.2864,0.287,0.2875,0.2832,0.2912,0.2914,0.2914,0.285,0.2847,0.2844,0,0,0,0,0,0,0.258,0.2586,0.2649,0.263,0.264,0.2708,0.2716,0.2729,0.274,0.2806,0.2819,0.2783,0.2866,0.2873,0.2868,0.2836,0.2914,0.2915,0.2853,0.2849,0.2846,0.2744,0,0,0,0,0,0,0.2578,0.2585,0.2569,0.2629,0.2641,0.2639,0.2714,0.2729,0.2742,0.2751,0.2807,0.2819,0.2869,0.2865,0.2869,0.284,0.2916,0.2856,0.2851,0.2847,0.2751,0.2737,0.2726,0,0,0,0,0,0.2575,0.2537,0.2568,0.2574,0.2623,0.2637,0.2644,0.2702,0.2739,0.2724,0.2766,0.2817,0.2839,0.2864,0.2869,0.2839,0.2858,0.2853,0.2847,0.2756,0.274,0.2726,0,0,0,0,0,0,0.2472,0.2546,0.2581,0.2561,0.2592,0.2655,0.2638,0.2683,0.2704,0.2712,0.2783,0.2795,0.2781,0.281,0.2836,0.2803,0.2856,0.2851,0.2785,0.277,0.2758,0.2753,0.2917,0,0,0,0,0,0.2447,0.2452,0.2517,0.2493,0.2507,0.2569,0.2578,0.262,0.2655,0.2668,0.271,0.2743,0.2757,0.2765,0.2782,0.2755,0.2769,0.2737,0.2725,0.2714,0.271,0.2699,0.2686,0.2826,0.2826,0.2826,0,0,0.2396,0.2437,0.2436,0.2474,0.2502,0.2507,0.258,0.2581,0.2586,0.2669,0.2667,0.2698,0.2739,0.2722,0.2717,0.2746,0.2674,0.2707,0.2698,0.27,0.2692,0.2679,0.2667,0.2822,0.2823,0.2824,0,0,0.2305,0.2335,0.232,0.2347,0.239,0.2432,0.2428,0.2484,0.2508,0.2507,0.257,0.2576,0.2599,0.2626,0.2642,0.2561,0.2609,0.2565,0.2501,0.249,0.2479,0.247,0.2443,0.2432,0.256,0.2559,0.2559,0,0.2236,0.2245,0.2306,0.2304,0.232,0.2395,0.238,0.2404,0.2449,0.2459,0.2489,0.2521,0.2553,0.2545,0.2525,0.2535,0.2534,0.2559,0.2476,0.2467,0.2459,0.2434,0.2423,0.2554,0.2554,0.2555,0.2556,0,0.2158,0.2164,0.2146,0.2189,0.2202,0.2193,0.2254,0.226,0.23,0.2339,0.2337,0.2379,0.2406,0.2407,0.2446,0.2405,0.2421,0.2462,0.2518,0.2439,0.2417,0.2408,0.2546,0.2548,0.2549,0.2551,0,0,0.2006,0.2083,0.2075,0.2096,0.2149,0.2154,0.2149,0.2176,0.218,0.2209,0.2208,0.2225,0.2264,0.2283,0.2326,0.2316,0.2251,0.2359,0.2362,0.2339,0.221,0.218,0.2167,0.2283,0.2281,0.228,0.2207,0,0.1926,0.1922,0.1978,0.1959,0.1965,0.2037,0.2033,0.2064,0.21,0.2112,0.2151,0.2164,0.2213,0.2225,0.2218,0.2261,0.2227,0.2266,0.2284,0.2284,0.2273,0.2156,0.2123,0.2053,0.2199,0.2197,0.2196,0,0.1833,0.1857,0.1838,0.1893,0.1897,0.1893,0.1922,0.1931,0.1969,0.1996,0.2017,0.2066,0.2066,0.2117,0.2119,0.2144,0.2155,0.2176,0.2175,0.218,0.2236,0.2159,0.2031,0.2021,0.2183,0.2184,0.2185,0,0.1726,0.1753,0.1746,0.1761,0.1824,0.1819,0.1845,0.1886,0.1898,0.1924,0.1933,0.1957,0.1971,0.199,0.2045,0.2077,0.2041,0.2096,0.2065,0.2063,0.2055,0.2055,0.1929,0.2058,0.2058,0.2058,0.2059,0,0.1632,0.1619,0.1699,0.1695,0.1682,0.1746,0.1732,0.1765,0.18,0.1804,0.1867,0.1869,0.1941,0.1952,0.1995,0.1991,0.1996,0.2019,0.2031,0.2014,0.2011,0.2023,0.203,0.2056,0.2056,0.2057,0.2057,0,0.1511,0.1565,0.1562,0.1621,0.1636,0.1624,0.1675,0.1674,0.1714,0.1718,0.1723,0.1785,0.1801,0.1857,0.1887,0.1916,0.1899,0.1921,0.1886,0.1895,0.1861,0.1864,0.1739,0.1727,0.1861,0.186,0.1859,0,0.1449,0.144,0.1499,0.1506,0.1529,0.1539,0.1553,0.1615,0.1626,0.1669,0.1663,0.1684,0.1704,0.1727,0.1775,0.1799,0.1823,0.1777,0.1827,0.1811,0.1824,0.1825,0.1825,0.1767,0.1765,0.1764,0.1763,0,0.1333,0.136,0.1377,0.1402,0.1416,0.1439,0.1466,0.1468,0.1538,0.1548,0.1565,0.158,0.1611,0.1632,0.1663,0.1691,0.1739,0.1746,0.1741,0.1725,0.1706,0.1718,0.1859,0.1749,0.1751,0.1752,0.1752,0.1753,0.1242,0.1238,0.1278,0.1295,0.1321,0.1345,0.1348,0.1387,0.1402,0.1432,0.1468,0.1481,0.152,0.1567,0.1591,0.1603,0.1629,0.162,0.1618,0.1616,0.1609,0.1702,0.1608,0.1609,0.1609,0.161,0.161,0,0.1131,0.116,0.1175,0.1211,0.1224,0.1266,0.1298,0.1307,0.1317,0.1349,0.1368,0.1388,0.1409,0.1458,0.1484,0.1484,0.1506,0.1488,0.149,0.1496,0.1583,0.1586,0.147,0.147,0.147,0.147,0.147,0.147,0.1075,0.1071,0.1103,0.1113,0.1143,0.1156,0.1171,0.1193,0.122,0.1239,0.1256,0.1288,0.1328,0.1357,0.1377,0.1392,0.1399,0.1374,0.1396,0.1476,0.149,0.1502,0.1506,0.1375,0.1375,0.1308,0.1308,0.1307]}]]